TimePDT,TemperatureF,Dew PointF,Humidity,Sea Level PressureIn,VisibilityMPH,Wind Direction,Wind SpeedMPH,Gust SpeedMPH,PrecipitationIn,Events,Conditions,WindDirDegrees,DateUTC
12:52 AM,87.1,48.9,27,29.83,10.0,WSW,4.6,-,N/A,,Clear,240,2012-09-20 07:52:00
1:52 AM,84.0,48.9,29,29.83,10.0,SSW,3.5,-,N/A,,Clear,210,2012-09-20 08:52:00
2:52 AM,82.9,48.0,29,29.82,10.0,Calm,Calm,-,N/A,,Clear,0,2012-09-20 09:52:00
3:52 AM,79.0,46.0,31,29.82,10.0,East,3.5,-,N/A,,Clear,100,2012-09-20 10:52:00
4:52 AM,81.0,48.0,31,29.82,10.0,Calm,Calm,-,N/A,,Clear,0,2012-09-20 11:52:00
6:52 AM,75.9,52.0,43,29.85,10.0,Calm,Calm,-,N/A,,Clear,0,2012-09-20 13:52:00
7:52 AM,82.0,51.1,34,29.87,10.0,WSW,4.6,-,N/A,,Clear,250,2012-09-20 14:52:00
8:52 AM,88.0,48.0,25,29.88,10.0,SW,3.5,-,N/A,,Clear,220,2012-09-20 15:52:00
9:52 AM,93.0,46.9,20,29.88,10.0,Calm,Calm,-,N/A,,Clear,0,2012-09-20 16:52:00
10:52 AM,97.0,51.1,21,29.88,10.0,Variable,3.5,-,N/A,,Clear,0,2012-09-20 17:52:00
11:52 AM,100.9,48.0,17,29.86,10.0,Calm,Calm,-,N/A,,Clear,0,2012-09-20 18:52:00
12:52 PM,104.0,46.9,15,29.84,10.0,SE,6.9,-,N/A,,Clear,130,2012-09-20 19:52:00
1:52 PM,105.1,39.9,11,29.81,10.0,ESE,9.2,-,N/A,,Clear,120,2012-09-20 20:52:00
2:52 PM,105.1,39.0,10,29.79,10.0,South,6.9,-,N/A,,Clear,170,2012-09-20 21:52:00
3:52 PM,106.0,39.0,10,29.77,10.0,East,11.5,17.3,N/A,,Clear,90,2012-09-20 22:52:00
4:52 PM,105.1,41.0,11,29.76,10.0,SE,9.2,-,N/A,,Clear,140,2012-09-20 23:52:00
5:52 PM,102.9,41.0,12,29.75,10.0,SE,6.9,-,N/A,,Clear,130,2012-09-21 00:52:00
6:52 PM,99.0,44.1,15,29.76,10.0,SE,3.5,-,N/A,,Clear,140,2012-09-21 01:52:00
7:52 PM,96.1,42.1,15,29.77,10.0,Variable,4.6,-,N/A,,Clear,0,2012-09-21 02:52:00
8:52 PM,91.9,43.0,18,29.78,10.0,WNW,3.5,-,N/A,,Clear,300,2012-09-21 03:52:00
9:52 PM,91.9,41.0,17,29.79,10.0,SW,6.9,-,N/A,,Clear,230,2012-09-21 04:52:00
10:52 PM,91.0,41.0,17,29.79,10.0,West,5.8,-,N/A,,Clear,280,2012-09-21 05:52:00
11:52 PM,84.9,43.0,23,29.79,10.0,SE,5.8,-,N/A,,Clear,130,2012-09-21 06:52:00